Weather History for Ephrata, WA

Change the Weather History Date:

Wednesday, February 6, 2013

  Actual Average Record
Temperature  
Mean Temperature 37 °F 32 °F  
Max Temperature 49 °F 40 °F 54 °F (1967)
Min Temperature 25 °F 25 °F -8 °F (1985)
Degree Days  
Heating Degree Days 28 33  
Month to date heating degree days 192 199  
Since 1 July heating degree days 3628 3907  
Cooling Degree Days 0 0  
Month to date cooling degree days 0 0  
Year to date cooling degree days 0 0  
Moisture  
Dew Point 29 °F    
Average Humidity 79    
Maximum Humidity 100    
Minimum Humidity 58    
Precipitation  
Precipitation T in 0.02 in 0.34 in (1983)
Month to date precipitation T 0.15  
Year to date precipitation 0.19 1.06  
Sea Level Pressure  
Sea Level Pressure 29.99 in    
Wind  
Wind Speed 6 mph (NNE)    
Max Wind Speed 18 mph    
Max Gust Speed 23 mph    
Visibility 5 miles    
Events Fog , Rain    
T = Trace of Precipitation, MM = Missing Value Source: NWS Daily Summary

Daily Weather History Graph

Daily Weather History Graph

Search for Another Location

Airport:

Trip Planner

Search our weather history database for the weather conditions in past years. The results will help you decide how hot, cold, wet, or windy it might be!

Date:

Astronomy

Feb. 06, 2013 Rise Set
Actual Time 7:16 AM PST 5:08 PM PST
Civil Twilight 6:44 AM PST 5:40 PM PST
Nautical Twilight 6:07 AM PST 6:17 PM PST
Astronomical Twilight 5:32 AM PST 6:52 PM PST
Moon 4:13 AM PST (2/6) 1:24 PM PST (2/6)
Length of Visible Light 10h 56m
Length of Day
9h 51m
Waning Crescent, 16% of the Moon is Illuminated
Feb 6
Waning Crescent
Feb 9
New
Feb 17
First Quarter
Feb 25
Full
Mar 4
Last Quarter

Hourly Weather History & Observations

Time (PST) Temp. Windchill Dew Point Humidity Pressure Visibility Wind Dir Wind Speed Gust Speed Precip Events Conditions
12:53 AM 28.0 °F - 27.0 °F 96% 29.95 in 0.2 mi Calm Calm - N/A Fog Light Freezing Fog
1:53 AM 28.0 °F 24.2 °F 27.0 °F 96% 29.96 in 0.5 mi ENE 3.5 mph - N/A Fog Light Freezing Fog
2:10 AM 28.4 °F 23.3 °F 26.6 °F 93% 29.92 in 0.2 mi NNE 4.6 mph - N/A Fog Light Freezing Fog
2:17 AM 28.4 °F 24.6 °F 28.4 °F 100% 29.92 in 0.5 mi North 3.5 mph - N/A Fog Light Freezing Fog
2:53 AM 28.0 °F - 27.0 °F 96% 29.96 in 0.5 mi Calm Calm - N/A Fog Light Freezing Fog
3:10 AM 28.4 °F 24.6 °F 26.6 °F 93% 29.93 in 1.2 mi East 3.5 mph - N/A   Scattered Clouds
3:20 AM 28.4 °F 23.3 °F 26.6 °F 93% 29.94 in 3.0 mi East 4.6 mph - N/A   Scattered Clouds
3:27 AM 28.4 °F - 28.4 °F 100% 29.94 in 2.0 mi Calm Calm - N/A   Partly Cloudy
3:34 AM 28.4 °F 21.2 °F 26.6 °F 93% 29.94 in 1.0 mi NNE 6.9 mph - N/A   Mist
3:38 AM 28.4 °F 24.6 °F 26.6 °F 93% 29.94 in 0.2 mi NNE 3.5 mph - N/A Fog Light Freezing Fog
4:53 AM 28.9 °F - 28.0 °F 96% 29.99 in 0.2 mi Calm Calm - N/A Fog Light Freezing Fog
5:36 AM 26.6 °F - 24.8 °F 93% 29.96 in 0.5 mi Calm Calm - N/A Fog Light Freezing Fog
5:44 AM 24.8 °F 20.5 °F 23.0 °F 93% 29.96 in 0.2 mi SSW 3.5 mph - N/A Fog Light Freezing Fog
5:53 AM 25.0 °F 20.7 °F 23.0 °F 92% 30.01 in 0.2 mi North 3.5 mph - N/A Fog Light Freezing Fog
6:53 AM 26.1 °F - 21.9 °F 84% 30.02 in 0.5 mi Calm Calm - N/A Fog Light Freezing Fog
7:53 AM 28.9 °F - 26.1 °F 89% 30.03 in 0.2 mi Calm Calm - N/A Fog Light Freezing Fog
8:08 AM 30.2 °F - 26.6 °F 86% 29.99 in 1.0 mi Calm Calm - N/A   Mist
8:27 AM 32.0 °F - 28.4 °F 87% 30.00 in 2.0 mi Calm Calm - N/A   Scattered Clouds
8:35 AM 32.0 °F - 28.4 °F 87% 30.00 in 4.0 mi Calm Calm - N/A   Partly Cloudy
8:53 AM 32.0 °F - 28.9 °F 88% 30.05 in 5.0 mi Calm Calm - N/A   Clear
9:53 AM 37.0 °F 30.4 °F 37.0 °F 100% 30.05 in 10.0 mi SW 9.2 mph - N/A   Partly Cloudy
10:53 AM 44.1 °F - 41.0 °F 89% 30.05 in - North - - N/A   Unknown
11:53 AM 48.9 °F - 35.1 °F 59% 30.04 in 10.0 mi SW 13.8 mph - N/A   Clear
12:53 PM 46.9 °F - 32.0 °F 56% 30.04 in 10.0 mi SW 17.3 mph - N/A   Clear
1:53 PM 46.9 °F - 32.0 °F 56% 30.03 in 10.0 mi WSW 9.2 mph - N/A   Partly Cloudy
2:53 PM 46.9 °F - 32.0 °F 56% 30.03 in 10.0 mi SSW 11.5 mph - N/A   Partly Cloudy
3:53 PM 45.0 °F 41.8 °F 33.1 °F 63% 30.02 in 10.0 mi South 5.8 mph - N/A   Mostly Cloudy
4:53 PM 39.9 °F 35.8 °F 32.0 °F 73% 30.01 in 10.0 mi SSE 5.8 mph - N/A   Scattered Clouds
5:53 PM 39.9 °F - 32.0 °F 73% 30.01 in 10.0 mi Calm Calm - N/A   Overcast
6:53 PM 39.0 °F 34.8 °F 32.0 °F 76% 30.01 in 10.0 mi North 5.8 mph - N/A   Overcast
7:53 PM 37.9 °F 32.1 °F 32.0 °F 79% 30.01 in 10.0 mi North 8.1 mph - 0.00 in Rain Light Rain
8:53 PM 37.0 °F 31.0 °F 32.0 °F 82% 29.98 in 10.0 mi North 8.1 mph - 0.00 in   Overcast
9:53 PM 36.0 °F 29.0 °F 32.0 °F 86% 29.96 in 10.0 mi North 9.2 mph - N/A   Partly Cloudy
10:53 PM 34.0 °F 28.0 °F 30.9 °F 89% 29.95 in 10.0 mi North 6.9 mph - N/A   Clear
11:53 PM 37.0 °F 31.0 °F 30.9 °F 79% 29.93 in 10.0 mi North 8.1 mph - N/A   Partly Cloudy